Regional Weather Roundup
Issued by NWS

Home | Current Version | Previous Version | Text Only | Print | Product List | Glossary Off
Versions: 1 2 3 4 5 6 7 8 9 10 11 12 13 14 15 16 17 18 19 20 21 22 23 24 25 26 27 28 29 30 31 32 33 34 35 36 37 38 39 40 41 42 43 44 45 46 47 48 49 50

012
ASUS43 KMPX 231201
RWRMN
WEATHER ROUNDUP FOR MINNESOTA
NATIONAL WEATHER SERVICE TWIN CITIES/CHANHASSEN MN
700 AM CDT WED AUG 23 2017


NOTE: "FAIR" INDICATES FEW OR NO CLOUDS BELOW 12,000 FEET WITH NO
SIGNIFICANT WEATHER AND/OR OBSTRUCTIONS TO VISIBILITY. N/A MEANS
CURRENT SKY AND/OR WEATHER CONDITIONS ARE NOT AVAILABLE.

MNZ060>063-068>070-231300-
   Twin Cities Metro

CITY           SKY/WX    TMP DP  RH WIND       PRES   REMARKS
TWIN CITIES    CLEAR     57  50  77 W5        30.10R
6HR MIN TEMP:  56; 6HR MAX TEMP:  61;

ST PAUL        CLEAR     56  51  84 VRB3      30.10R
CRYSTAL        CLEAR     52  47  83 CALM      30.09R
BLAINE         CLEAR     54  52  94 CALM      30.09R
LAKEVILLE      CLEAR     52  52 100 W3        30.10R
EDEN PRAIRIE   CLEAR     53  50  89 S5        30.10R
6HR MIN TEMP:  53; 6HR MAX TEMP:  61;

SOUTH ST PAUL  CLEAR     55  51  83 CALM      30.10R
LAKE ELMO      FAIR      50  48  93 CALM      30.10R
$$
MNZ001>005-007-008-013>017-022>024-027-028-231300-
   Northwest Minnesota

CITY           SKY/WX    TMP DP  RH WIND       PRES   REMARKS
BEMIDJI          N/A     43  43 100 CALM      30.11R FOG
HALLOCK        CLOUDY    48  46  93 S3        30.10R
ROSEAU         FOG       46  43  87 CALM      30.11R VSB 1/4
WARROAD        MOCLDY    46  43  87 W3        30.11R
THIEF RVR FALL MOCLDY    43  43 100 CALM      30.12R FOG
CROOKSTON      CLOUDY    46  46 100 CALM      30.12R
FOSSTON        FOG       39  39 100 CALM      30.13R VSB 1/2
DETROIT LAKES  CLEAR     52  46  82 CALM      30.13R
MOORHEAD       CLEAR     45  43  93 CALM      30.12R
PARK RAPIDS    CLEAR     46  42  86 W5        30.11R
MAHNOMEN       FAIR      44  43  95 CALM      30.12R
$$
MNZ006-009>011-018-025>026-231300-
   North Central Minnesota

CITY           SKY/WX    TMP DP  RH WIND       PRES   REMARKS
BAUDETTE       FOG       44  44 100 CALM      30.09R VSB 1/4
FLAG ISLAND    MOCLDY    54  52  94 NW3       30.08R
INTL FALLS     PTCLDY    48  47  96 CALM      30.08R FOG
6HR MIN TEMP:  46; 6HR MAX TEMP:  52;

WASKISH        CLEAR     41  39  93 CALM      30.10R
BIG FORK       FOG       41  39  93 CALM      30.10R VSB 1/4
LONGVILLE      MOCLDY    46  46 100 CALM      30.10R
GRAND RAPIDS   CLEAR     48  48 100 CALM      30.11R
CRANE LAKE     PTCLDY    52  48  87 N5        30.09R
ORR            CLOUDY    52  48  87 CALM      30.06R
COOK           CLOUDY    50  48  93 CALM      30.08R
WALKER         CLOUDY    47  47  97 W3        30.11R
$$
MNZ012-019>021-037-231300-
   Northeast Minnesota

CITY           SKY/WX    TMP DP  RH WIND       PRES   REMARKS
DULUTH         PTCLDY    50  49  96 NW6       30.06R
6HR MIN TEMP:  48; 6HR MAX TEMP:  53;

ELY            PTCLDY    50  48  93 NW3       30.07R
HIBBING        CLOUDY    44  44 100 CALM      30.08R
EVELETH        CLOUDY    53  48  83 NW3       30.08R
DULUTH HARBOR  PTCLDY    54  52  94 S6        30.07R
TWO HARBORS    CLEAR     54  48  82 NW5       30.03R
SILVER BAY     PTCLDY    48  48 100 CALM      30.02R
GRAND MARAIS     N/A     51  48  89 CALM      30.01R
G MARAIS ARPRT CLEAR     46  39  76 CALM      30.02R
$$
MNZ029>031-032-039>041-046>048-054>057-064-231300-
   West Central Minnesota

CITY           SKY/WX    TMP DP  RH WIND       PRES   REMARKS
FERGUS FALLS   CLEAR     50  50 100 CALM      30.12S
WHEATON        CLEAR     46  45  93 CALM      30.14R
ALEXANDRIA     CLEAR     51  49  92 W5        30.13R
ELBOW LAKE     FAIR      49  48  97 CALM      30.13R
WADENA         CLEAR     46  46 100 CALM      30.11R
GLENWOOD       CLEAR     50  48  93 W5        30.12S
APPLETON       CLEAR     48  46  93 W3        30.12R
BENSON         CLEAR     45  43  93 CALM      30.14R
ORTONVILLE     CLEAR     50  46  87 MISG      30.12R
MADISON        CLEAR     52  52 100 CALM      30.12S
WILLMAR        FAIR      48  48 100 CALM      30.14R
$$
MNZ033>034-036-042>043-049>051-058-059-231300-
   Central Minnesota

CITY           SKY/WX    TMP DP  RH WIND       PRES   REMARKS
ST CLOUD       CLEAR     49  49 100 CALM      30.11R
6HR MIN TEMP:  47; 6HR MAX TEMP:  55;

SAUK CENTRE    FAIR      50  48  92 CALM      30.12R
PAYNESVILLE    CLEAR     46  46 100 W3        30.13R
AITKIN         FOG       43  41  93 CALM      30.09R VSB 1/2
PINE RIVER     CLEAR     41  39  93 CALM      30.14R
BRAINERD       CLEAR     47  46  97 CALM      30.11R
STAPLES        CLEAR     46  45  93 CALM      30.11R
LONG PRAIRIE   FAIR      45  45 100 CALM      30.12R
LITTLE FALLS   FOG       45  43  93 CALM      30.11R VSB 1
LITCHFIELD     CLEAR     55  52  88 CALM      30.12R
BUFFALO        CLEAR     53  49  87 CALM      30.12R
MAPLE LAKE     CLEAR     51  49  93 CALM      30.12R
HUTCHINSON     CLOUDY    49  49  99 CALM      30.13R
$$
MNZ037-044-045-052-053-231300-
   East Central Minnesota

CITY           SKY/WX    TMP DP  RH WIND       PRES   REMARKS
PRINCETON      CLEAR     46  45  93 CALM      30.10R
MORA           CLEAR     48  46  93 CALM      30.11R
CAMBRIDGE      CLEAR     52  46  82 CALM      30.10R
RUSH CITY      CLEAR     47  46  96 CALM      30.10R
MOOSE LAKE     PTCLDY    50  46  87 CALM      30.07R
HINCKLEY       FAIR      52  52 100 NW3       30.09R
CLOQUET        CLEAR     48  45  87 W5        30.08R
MCGREGOR       CLOUDY    46  45  93 CALM      30.10R VSB 1
$$
MNZ071>073-080-081-089-090-097-098-231300-
   Southwest Minnesota

CITY           SKY/WX    TMP DP  RH WIND       PRES   REMARKS
MONTEVIDEO     CLEAR     50  46  87 NW5       30.13S
GRANITE FALLS  CLEAR     49  48  95 W3        30.15R
CANBY          CLEAR     53  48  84 CALM      30.14R
MARSHALL       CLEAR     52  48  86 W5        30.13S
REDWOOD FALLS  CLEAR     52  47  83 W5        30.12S
OLIVIA         CLEAR     50  46  87 W5        30.12R
PIPESTONE      CLEAR     48  46  93 CALM      30.15R
WINDOM         CLEAR     48  46  93 CALM      30.14S
WORTHINGTON    CLEAR     50  47  89 W3        30.16R
JACKSON        CLEAR     50  46  87 CALM      30.15S
TRACY          CLEAR     54  49  84 SW8       30.14S
SLAYTON        CLEAR     53  46  77 W5        30.15S
$$
MNZ065>067-074>077-082>085-091>093-231300-
   South Central Minnesota

CITY           SKY/WX    TMP DP  RH WIND       PRES   REMARKS
MANKATO        CLEAR     52  50  93 W3        30.13R
NEW ULM        CLEAR     48  46  93 W6        30.13R
ST JAMES       CLEAR     50  46  87 CALM      30.14R
FAIRMONT       CLEAR     53  49  86 W5        30.14R
GLENCOE        CLEAR     52  51  98 CALM      30.11R
FARIBAULT      CLEAR     50  48  93 CALM      30.12R
OWATONNA       CLEAR     48  46  93 CALM      30.12R
WASECA         CLEAR     45  45 100 CALM      30.14R
ALBERT LEA     CLEAR     55  52  88 W3        30.13R
$$
MNZ078>079-086>088-094>096-231300-
   Southeast Minnesota

CITY           SKY/WX    TMP DP  RH WIND       PRES   REMARKS
ROCHESTER      CLEAR     50  49  96 W6        30.11R
6HR MIN TEMP:  50; 6HR MAX TEMP:  53;

RED WING       CLEAR     52  48  87 CALM      30.09R
STANTON        CLEAR     50  48  92 CALM      30.10R
DODGE CENTER   CLEAR     50  46  87 W6        30.11R
WINONA         CLEAR     54  50  87 CALM      30.09R
AUSTIN         CLEAR     52  48  87 CALM      30.12R
PRESTON        CLEAR     51  47  87 W8        30.10S
$$
ABBREVIATIONS USED IN REMARKS
   TC - TEMPERATURES IN CELSIUS
  WCI - WIND CHILL INDEX
   HX - HEAT INDEX
  VSB - VISIBILITY
$$




USA.gov is the U.S. government's official web portal to all federal, state and local government web resources and services.